| time (UTC) | temp F | wind direction | speed MPH | gust MPH | rain 1hr in | rain 24hr in | rain mn in | humidity % | barometer mb |
| 20260505124505 | 59 | 167 | 0.0 | 3.0 | 0.00 | 0.00 | 0.00 | 70 | 1015.8 |
| 20260505123002 | 58 | 159 | 0.0 | 4.0 | 0.00 | 0.00 | 0.00 | 62 | 1015.5 |
| 20260505121601 | 56 | 188 | 0.0 | 1.0 | 0.00 | 0.00 | 0.00 | 49 | 1015.3 |
| 20260505120100 | 54 | 188 | 0.0 | 2.0 | 0.00 | 0.00 | 0.00 | 38 | 1015.2 |
| 20260505114555 | 54 | 188 | 0.0 | 1.0 | 0.00 | 0.00 | 0.00 | 55 | 1015.3 |
| 20260505113058 | 53 | 188 | 0.0 | 2.0 | 0.00 | 0.00 | 0.00 | 60 | 1015.0 |
| 20260505111553 | 54 | 188 | 0.0 | 1.0 | 0.00 | 0.00 | 0.00 | 70 | 1014.7 |
| 20260505101536 | 58 | 194 | 0.0 | 1.0 | 0.00 | 0.00 | 0.00 | 74 | 1014.3 |
| 20260505100042 | 58 | 200 | 1.0 | 3.0 | 0.00 | 0.00 | 0.00 | 74 | 1014.2 |
| 20260505094534 | 59 | 217 | 0.0 | 6.0 | 0.00 | 0.00 | 0.00 | 73 | 1014.0 |
| 20260505093034 | 59 | 216 | 0.0 | 6.0 | 0.00 | 0.00 | 0.00 | 73 | 1014.0 |
| 20260505091550 | 59 | 231 | 1.0 | 8.0 | 0.00 | 0.00 | 0.00 | 73 | 1013.5 |
| 20260505090050 | 58 | 234 | 0.0 | 4.0 | 0.00 | 0.00 | 0.00 | 73 | 1013.5 |
| 20260505084537 | 58 | 166 | 0.0 | 5.0 | 0.00 | 0.00 | 0.00 | 73 | 1013.7 |
| 20260505083041 | 58 | 162 | 1.0 | 4.0 | 0.00 | 0.00 | 0.00 | 74 | 1013.7 |
| 20260505081548 | 58 | 171 | 0.0 | 4.0 | 0.00 | 0.00 | 0.00 | 73 | 1013.8 |
| 20260505080038 | 59 | 165 | 0.0 | 2.0 | 0.00 | 0.00 | 0.00 | 73 | 1014.0 |
| 20260505074526 | 59 | 150 | 2.0 | 4.0 | 0.00 | 0.00 | 0.00 | 72 | 1014.2 |
| 20260505073024 | 60 | 160 | 0.0 | 2.0 | 0.00 | 0.00 | 0.00 | 71 | 1014.5 |
| 20260505071527 | 60 | 190 | 0.0 | 4.0 | 0.00 | 0.00 | 0.00 | 71 | 1014.7 |
| 20260505070027 | 60 | 169 | 0.0 | 3.0 | 0.00 | 0.00 | 0.00 | 71 | 1014.8 |
| 20260505064521 | 60 | 226 | 0.0 | 3.0 | 0.00 | 0.00 | 0.00 | 71 | 1014.6 |
| 20260505063026 | 60 | 189 | 0.0 | 2.0 | 0.00 | 0.00 | 0.00 | 70 | 1014.9 |
| 20260505061526 | 60 | 183 | 1.0 | 4.0 | 0.00 | 0.00 | 0.00 | 70 | 1014.9 |
| 20260505060017 | 61 | 179 | 0.0 | 3.0 | 0.00 | 0.00 | 0.00 | 70 | 1015.1 |
| 20260505054521 | 60 | 189 | 0.0 | 2.0 | 0.00 | 0.00 | 0.00 | 71 | 1015.2 |
| 20260505053013 | 60 | 161 | 0.0 | 5.0 | 0.00 | 0.00 | 0.00 | 72 | 1015.2 |
| 20260505051511 | 59 | 153 | 0.0 | 4.0 | 0.00 | 0.00 | 0.00 | 73 | 1015.2 |
| 20260505041555 | 57 | 166 | 0.0 | 2.0 | 0.00 | 0.00 | 0.00 | 74 | 1015.2 |
| 20260505040053 | 57 | 167 | 0.0 | 3.0 | 0.00 | 0.00 | 0.00 | 74 | 1015.2 |
| 20260505034546 | 56 | 169 | 0.0 | 3.0 | 0.00 | 0.00 | 0.00 | 74 | 1015.1 |
| 20260505033049 | 58 | 169 | 1.0 | 3.0 | 0.00 | 0.00 | 0.00 | 74 | 1015.1 |
| 20260505031537 | 59 | 170 | 0.0 | 3.0 | 0.00 | 0.00 | 0.00 | 73 | 1015.1 |
| 20260505030033 | 60 | 169 | 0.0 | 2.0 | 0.00 | 0.00 | 0.00 | 72 | 1015.0 |
| 20260505024550 | 59 | 163 | 0.0 | 4.0 | 0.00 | 0.00 | 0.00 | 73 | 1015.0 |
| 20260505023034 | 59 | 171 | 0.0 | 2.0 | 0.00 | 0.00 | 0.00 | 73 | 1014.9 |
| 20260505021538 | 59 | 177 | 0.0 | 1.0 | 0.00 | 0.00 | 0.00 | 73 | 1014.9 |
| 20260505020016 | 60 | 175 | 0.0 | 2.0 | 0.00 | 0.00 | 0.00 | 72 | 1014.8 |
| 20260505014513 | 61 | 176 | 0.0 | 3.0 | 0.00 | 0.00 | 0.00 | 71 | 1014.7 |
| 20260505013006 | 63 | 205 | 0.0 | 1.0 | 0.00 | 0.00 | 0.00 | 67 | 1014.7 |
| 20260505011503 | 65 | 205 | 1.0 | 2.0 | 0.00 | 0.00 | 0.00 | 62 | 1014.6 |
| 20260505010058 | 68 | 207 | 0.0 | 1.0 | 0.00 | 0.00 | 0.00 | 58 | 1014.5 |
| 20260505004553 | 70 | 207 | 0.0 | 2.0 | 0.00 | 0.00 | 0.00 | 52 | 1014.5 |
| 20260505003049 | 71 | 220 | 0.0 | 6.0 | 0.00 | 0.00 | 0.00 | 50 | 1014.4 |
| 20260505001545 | 72 | 215 | 2.0 | 8.0 | 0.00 | 0.00 | 0.00 | 49 | 1014.3 |
| 20260505000044 | 73 | 221 | 3.0 | 6.0 | 0.00 | 0.00 | 0.00 | 50 | 1014.3 |
| 20260504234536 | 74 | 202 | 2.0 | 9.0 | 0.00 | 0.00 | 0.00 | 48 | 1014.3 |
| 20260504233039 | 74 | 235 | 3.0 | 11.0 | 0.00 | 0.00 | 0.00 | 47 | 1014.3 |
| 20260504231527 | 75 | 229 | 4.0 | 11.0 | 0.00 | 0.00 | 0.00 | 45 | 1014.3 |
| 20260504230027 | 75 | 231 | 5.0 | 9.0 | 0.00 | 0.00 | 0.00 | 44 | 1014.3 |
| 20260504224522 | 75 | 140 | 4.0 | 11.0 | 0.00 | 0.00 | 0.00 | 44 | 1014.3 |
| 20260504223014 | 75 | 179 | 5.0 | 13.0 | 0.00 | 0.00 | 0.00 | 45 | 1014.3 |
| 20260504221510 | 76 | 250 | 9.0 | 17.0 | 0.00 | 0.00 | 0.00 | 44 | 1014.3 |
| 20260504220006 | 76 | 160 | 4.0 | 12.0 | 0.00 | 0.00 | 0.00 | 44 | 1014.5 |
| 20260504214501 | 76 | 227 | 3.0 | 12.0 | 0.00 | 0.00 | 0.00 | 45 | 1014.5 |
| 20260504213122 | 76 | 180 | 6.0 | 14.0 | 0.00 | 0.00 | 0.00 | 48 | 1014.6 |
| 20260504211554 | 76 | 204 | 4.0 | 13.0 | 0.00 | 0.00 | 0.00 | 46 | 1014.7 |
| 20260504210048 | 76 | 238 | 6.0 | 15.0 | 0.00 | 0.00 | 0.00 | 47 | 1014.9 |
| 20260504204559 | 76 | 237 | 6.0 | 12.0 | 0.00 | 0.00 | 0.00 | 45 | 1015.0 |
| 20260504203041 | 75 | 180 | 4.0 | 17.0 | 0.00 | 0.00 | 0.00 | 49 | 1015.2 |
| 20260504201536 | 75 | 238 | 3.0 | 16.0 | 0.00 | 0.00 | 0.00 | 49 | 1015.4 |
| 20260504200031 | 76 | 203 | 8.0 | 17.0 | 0.00 | 0.00 | 0.00 | 48 | 1015.7 |
| 20260504194529 | 75 | 244 | 7.0 | 18.0 | 0.00 | 0.00 | 0.00 | 49 | 1015.8 |
| 20260504193022 | 76 | 246 | 5.0 | 11.0 | 0.00 | 0.00 | 0.00 | 49 | 1016.0 |
| 20260504191517 | 75 | 213 | 5.0 | 15.0 | 0.00 | 0.00 | 0.00 | 48 | 1016.1 |
| 20260504190013 | 74 | 206 | 7.0 | 17.0 | 0.00 | 0.00 | 0.00 | 50 | 1016.3 |
| 20260504184511 | 75 | 188 | 5.0 | 17.0 | 0.00 | 0.00 | 0.00 | 52 | 1016.5 |
| 20260504183005 | 75 | 247 | 5.0 | 14.0 | 0.00 | 0.00 | 0.00 | 52 | 1016.5 |
| 20260504181611 | 74 | 223 | 4.0 | 18.0 | 0.00 | 0.00 | 0.00 | 50 | 1016.8 |
| 20260504180056 | 74 | 269 | 6.0 | 15.0 | 0.00 | 0.00 | 0.00 | 52 | 1017.0 |
| 20260504174551 | 74 | 250 | 7.0 | 16.0 | 0.00 | 0.00 | 0.00 | 52 | 1017.1 |
| 20260504173046 | 74 | 264 | 10.0 | 15.0 | 0.00 | 0.00 | 0.00 | 51 | 1017.2 |
| 20260504171545 | 73 | 280 | 9.0 | 15.0 | 0.00 | 0.00 | 0.00 | 53 | 1017.5 |